Vorticity
8 13 13 7 5 12 19 17 12 9 11 14 6 -3 3 11 9 8 9 9 9 9 10 11 8 5 4 2 1 1 2 3 4 4 5 5 4 5 7 8 8 7 6 7 6 4 4 4 6 8 9 10 11 10 9 6 4 4 5 6 5 4 5 7 9 12 13 13 15 18 20 19 18 15 14 13 11 11 14 15 17 17 17 19 19
15 14 8 6 11 18 23 17 11 12 14 14 10 6 10 12 11 11 10 9 10 11 11 9 6 4 2 1 1 2 3 5 4 4 5 5 5 7 8 8 6 6 7 7 5 3 3 4 6 8 9 10 10 9 7 4 3 5 5 5 4 4 5 8 10 11 11 13 16 19 18 16 15 14 12 11 11 14 17 17 18 19 21 23 24
10 8 5 6 11 18 18 6 1 11 15 11 11 12 11 9 9 11 11 12 11 10 8 6 3 2 1 2 3 4 5 5 4 5 5 6 7 8 8 7 5 6 7 5 3 3 4 5 7 8 10 11 10 8 5 3 4 6 6 5 3 3 6 9 10 10 12 15 17 17 15 14 14 13 10 10 13 17 17 16 19 23 26 27 26
7 9 10 7 7 12 12 3 1 10 11 5 7 12 13 12 11 12 12 11 9 7 5 3 1 2 3 4 4 4 5 5 5 6 6 7 8 8 7 5 5 7 6 4 3 4 4 6 7 10 11 11 9 7 4 4 6 6 5 4 4 5 8 11 11 12 15 17 17 16 15 14 14 11 9 10 14 17 14 15 22 24 24 25 25
9 10 10 7 9 13 13 8 7 10 11 11 12 13 13 11 10 10 9 7 6 5 3 2 2 4 4 5 5 5 5 5 6 7 7 7 8 7 5 4 6 7 5 4 4 4 5 7 8 11 11 10 9 7 4 5 6 6 5 4 4 7 10 12 13 15 18 17 15 15 15 14 12 10 9 9 11 14 11 12 22 27 22 18 21
8 9 6 7 11 14 13 11 9 9 11 12 12 12 11 9 8 8 7 6 4 3 3 3 5 5 5 5 5 6 6 7 8 7 7 8 8 6 3 4 6 6 4 4 4 4 6 7 9 11 11 9 8 5 4 6 6 5 5 4 5 8 11 13 15 17 17 15 14 15 14 13 10 8 8 9 10 13 11 8 14 26 25 15 14
7 6 5 6 10 14 15 11 7 7 8 8 9 11 10 9 9 8 7 6 4 4 4 6 8 7 5 5 6 7 8 8 7 6 7 8 7 4 2 4 5 5 4 4 5 5 6 8 10 11 10 9 7 5 4 6 6 5 5 4 5 9 11 13 16 17 15 13 13 14 13 12 10 8 9 9 9 11 11 10 10 16 23 19 13
6 5 5 5 6 11 15 13 7 5 5 6 8 9 9 9 10 9 9 8 7 7 7 8 9 6 3 5 8 8 8 7 6 5 7 9 6 2 1 3 4 4 5 5 6 6 7 8 10 10 9 8 6 5 5 6 6 6 5 4 5 8 10 13 16 16 14 12 13 14 13 11 8 7 8 7 7 9 9 13 14 13 18 22 18
6 5 5 4 4 6 10 13 11 7 4 4 5 7 8 8 8 9 10 10 10 10 10 10 9 4 2 4 7 8 8 6 4 5 7 8 6 3 2 3 3 4 5 6 7 7 8 9 11 10 9 7 6 5 5 6 6 6 5 3 5 7 9 12 14 15 14 12 13 14 13 10 7 7 7 7 9 12 10 9 13 14 15 19 21
5 5 5 4 4 3 5 8 10 9 7 5 5 6 8 8 8 9 9 9 10 10 10 10 8 4 3 3 5 8 7 4 4 5 8 8 6 4 3 3 3 5 6 7 8 8 8 10 11 10 8 7 7 6 6 7 7 7 6 5 6 8 9 10 11 13 14 13 13 15 13 10 8 7 8 9 10 12 11 8 9 12 13 15 17
7 5 5 6 4 3 3 4 6 8 8 6 6 6 7 7 8 7 7 8 9 8 9 9 9 8 6 5 5 6 5 4 5 6 7 7 6 4 4 4 4 6 7 8 8 8 9 10 10 9 7 7 6 5 6 7 8 7 6 5 5 7 7 7 8 10 13 14 14 16 15 11 9 8 7 8 8 9 12 11 10 10 12 14 14
8 5 4 6 6 5 4 3 4 5 6 7 7 6 5 6 6 7 8 7 7 8 9 9 9 10 9 8 7 6 5 5 6 6 7 7 6 5 4 4 5 6 7 7 8 8 9 10 10 8 7 6 6 5 5 6 7 6 5 4 4 5 5 5 7 8 11 13 13 15 16 13 10 8 7 6 6 8 10 10 11 12 11 12 13
9 7 6 7 8 6 4 3 4 4 5 6 6 6 6 5 5 6 6 6 7 7 6 7 8 8 8 8 8 7 7 7 7 8 7 6 6 5 4 5 6 6 7 8 8 9 10 10 8 7 7 6 6 6 5 6 7 6 5 5 3 3 3 4 6 8 9 12 13 14 15 15 12 9 8 7 6 6 6 6 9 12 12 11 10
10 8 8 8 9 8 6 5 4 4 5 6 6 7 6 5 5 5 5 5 6 6 5 6 6 5 6 6 6 7 9 9 10 10 8 6 5 5 5 6 6 6 7 8 8 9 9 8 7 6 7 7 7 7 6 7 8 7 6 6 4 4 6 7 8 9 9 10 11 11 12 15 15 11 9 8 8 6 6 5 5 9 11 11 11
10 9 8 8 7 6 6 6 5 4 6 6 7 7 7 7 6 5 4 4 5 5 6 5 4 5 5 5 7 9 9 9 10 10 8 5 3 5 6 5 5 6 7 8 9 9 9 7 7 6 6 7 7 7 6 6 7 8 7 7 6 6 7 7 7 8 8 9 9 10 10 13 15 14 11 9 8 7 6 6 4 5 8 9 11
7 7 7 7 7 6 5 5 5 7 7 7 9 9 8 9 8 6 6 5 5 5 5 5 5 5 4 7 12 11 7 9 9 7 7 5 3 7 10 8 8 7 7 9 9 9 9 7 7 6 6 7 8 7 7 6 6 8 7 7 7 5 5 5 6 7 8 9 10 9 9 9 12 14 13 10 8 6 6 6 4 3 4 5 9
4 5 4 3 2 1 2 2 4 6 7 7 9 9 9 9 9 9 7 5 6 6 6 5 4 2 3 7 9 6 2 6 11 11 11 7 5 12 14 10 7 7 8 10 10 9 8 6 6 7 6 7 8 7 7 7 7 8 8 8 8 7 7 8 8 8 9 10 11 10 8 7 8 11 12 11 9 6 5 5 5 5 3 2 5
4 3 1 1 1 -1 -0 0 1 4 6 8 8 7 8 8 7 7 6 6 7 6 4 5 5 6 8 8 12 13 5 6 17 21 14 7 8 15 13 6 6 8 10 11 9 8 8 6 7 7 6 6 7 7 7 7 7 8 8 8 8 9 9 9 8 9 9 10 11 10 8 8 7 7 9 10 10 8 5 5 6 7 6 3 3
3 5 8 9 9 10 9 6 6 7 7 6 6 6 8 9 7 6 6 6 6 4 5 8 9 12 13 12 19 22 15 20 33 26 11 9 14 14 8 5 8 10 10 10 9 8 8 7 7 6 5 6 6 7 8 8 7 8 7 7 7 7 7 7 6 7 8 9 10 10 9 9 8 7 7 7 9 9 6 5 5 5 7 6 4
5 13 19 19 16 16 16 14 14 13 10 7 7 8 10 10 7 6 7 9 8 6 7 9 9 11 11 9 14 17 20 33 37 20 8 14 14 7 5 8 9 9 9 10 9 8 8 7 7 6 5 6 6 6 8 8 7 8 7 6 7 6 6 5 5 6 7 7 8 8 8 9 9 9 9 6 7 8 7 6 5 3 4 5 6
6 4 6 10 12 12 12 12 12 13 12 11 10 10 11 11 9 9 12 13 10 7 7 9 9 9 8 11 20 25 26 27 21 10 10 13 7 4 8 9 9 10 11 10 9 8 8 7 6 6 5 5 6 6 8 8 8 8 7 6 6 6 6 5 4 5 6 6 6 7 8 9 8 9 10 9 8 7 6 7 6 4 4 3 4
7 1 -1 4 10 11 10 9 10 12 15 16 15 11 9 10 10 11 11 8 5 5 8 9 7 7 9 15 23 23 18 13 10 9 10 7 5 9 10 8 9 11 11 10 9 8 7 6 6 6 5 5 6 6 7 8 8 8 7 7 6 6 6 5 4 5 4 5 5 6 7 8 8 8 9 10 10 8 7 7 6 5 4 3 3
7 6 4 4 4 5 6 8 11 14 15 16 16 14 10 9 8 7 6 7 8 9 9 8 7 8 11 15 15 11 9 9 10 9 8 7 9 10 8 8 11 11 10 9 8 7 6 6 6 6 5 5 5 6 7 8 8 8 7 6 7 7 6 5 4 4 4 4 5 5 5 6 7 7 7 7 8 9 9 8 7 6 5 4 4
13 13 13 11 9 6 3 3 5 9 10 11 13 13 10 8 6 6 8 11 12 11 9 9 8 7 10 13 13 11 10 10 9 7 7 8 9 8 8 10 11 10 10 9 7 7 6 5 5 6 5 5 5 6 7 7 8 8 7 7 7 6 6 5 4 4 4 4 5 4 5 5 5 6 7 6 6 7 8 8 8 8 6 5 6
15 15 14 13 14 14 13 10 8 7 7 11 15 15 12 8 6 8 11 12 11 9 9 10 9 9 12 15 14 10 9 10 9 7 6 7 8 9 10 10 9 9 9 7 6 6 5 5 6 6 5 5 5 6 6 7 8 8 8 7 7 7 7 6 5 4 4 4 5 4 4 4 5 5 6 6 6 5 7 8 9 9 7 6 7
6 6 4 3 5 8 10 12 11 8 6 9 13 14 11 8 7 9 10 10 9 9 10 10 9 10 12 14 13 10 9 10 9 6 6 9 10 10 9 9 9 9 7 6 7 6 5 5 6 5 5 5 5 5 6 7 8 8 8 7 7 7 7 7 5 5 4 4 5 5 4 3 4 5 6 6 6 6 6 7 8 9 9 8 8
2 6 8 9 10 7 4 5 7 7 9 12 14 12 8 7 8 9 10 10 9 9 10 10 11 12 14 15 13 10 9 9 7 6 8 10 10 9 9 8 8 7 6 6 6 6 6 6 5 5 6 6 5 6 6 7 8 9 8 8 8 8 8 8 7 5 4 5 4 5 5 4 4 5 6 6 6 5 5 7 8 8 9 10 9
6 9 12 12 12 9 7 7 8 7 8 11 13 13 12 11 10 9 9 10 11 11 11 11 12 14 16 15 12 7 6 6 6 7 9 11 10 9 8 8 7 6 6 6 6 6 6 6 5 6 5 5 5 6 6 7 8 8 8 8 8 8 8 8 8 7 5 5 5 5 5 5 5 6 7 7 7 6 6 6 7 7 8 9 9
5 7 6 4 4 5 5 6 8 9 8 5 5 7 9 10 10 10 11 11 11 10 10 12 14 15 15 13 9 4 3 5 8 10 10 8 8 8 8 7 6 6 6 6 7 7 7 6 6 6 5 5 5 5 5 6 7 8 9 8 7 8 9 8 8 8 7 5 6 6 6 6 7 7 7 7 6 6 6 6 5 6 7 7 7
5 4 2 -1 -1 1 2 4 6 8 8 6 5 6 8 9 10 10 10 9 8 11 13 14 14 12 10 9 6 3 3 5 7 7 6 6 8 9 8 7 6 6 7 7 7 7 6 6 6 6 5 5 5 5 6 6 6 7 8 8 7 8 8 8 8 8 8 7 6 7 6 7 7 7 7 7 6 5 5 5 5 6 6 6 6
7 6 4 1 -1 -2 1 5 7 9 10 10 9 9 10 11 9 8 7 6 11 17 16 11 11 11 8 6 4 3 2 3 4 4 5 7 8 7 6 7 8 8 7 6 6 7 7 6 6 6 5 5 5 6 6 5 6 7 7 8 8 7 7 9 8 7 7 7 7 7 7 7 7 7 7 7 6 5 5 5 5 5 6 6 7
8 7 7 6 3 2 6 10 11 10 10 10 9 8 8 7 6 6 7 7 11 15 10 3 6 12 9 4 4 4 1 -0 2 4 6 6 6 6 7 7 7 7 7 6 6 7 7 7 7 6 6 6 5 6 6 5 5 6 7 8 8 8 7 8 8 7 7 7 7 7 7 7 7 7 7 6 5 4 4 3 3 4 4 6 8
12 11 11 11 8 7 8 11 12 13 12 12 13 12 9 7 6 8 11 11 10 12 10 6 5 8 9 6 4 3 1 0 1 3 4 6 6 6 6 5 5 6 6 5 5 7 8 8 7 6 6 6 6 5 5 5 5 5 7 8 8 7 8 8 7 7 7 6 7 7 7 7 6 6 6 6 5 4 3 3 3 4 4 5 7
14 14 14 15 14 13 12 13 15 16 14 12 10 7 6 6 8 10 12 12 9 8 10 8 4 3 7 9 6 2 1 1 2 3 4 6 7 5 4 5 6 5 5 5 5 7 7 7 7 7 6 5 6 5 4 5 6 6 6 8 8 8 8 8 8 7 6 5 6 7 6 6 5 4 5 6 6 5 4 4 4 5 5 7 9
17 17 16 17 19 19 18 16 16 16 15 10 3 -1 -0 3 6 8 11 14 12 8 8 9 7 5 7 9 8 6 4 3 2 3 4 5 5 4 4 4 3 3 5 7 6 6 6 7 7 8 7 5 5 5 5 6 7 7 7 8 9 9 9 9 8 7 6 5 6 7 7 6 5 4 5 5 5 5 4 4 5 6 7 9 11
14 14 14 17 19 19 19 18 17 16 16 13 10 9 9 7 6 7 11 12 11 9 8 7 6 6 8 10 10 7 5 5 4 3 3 3 3 3 4 3 1 1 3 7 9 7 5 6 7 6 6 5 4 5 5 6 7 7 8 9 10 10 9 9 7 6 5 6 6 6 6 6 6 5 5 5 6 6 6 5 6 8 9 10 10
8 7 8 10 12 15 17 19 19 17 17 17 18 18 17 13 9 9 10 8 6 10 14 12 8 6 5 8 12 11 7 6 5 3 2 2 3 4 4 1 -1 0 3 6 9 8 5 5 6 5 5 6 5 4 5 6 7 8 9 10 10 10 9 7 6 6 5 6 6 6 6 6 6 6 5 5 5 6 7 7 8 9 10 10 9
5 6 6 6 8 10 12 15 16 16 16 18 19 16 14 13 11 9 9 6 3 6 12 20 28 27 13 4 7 11 8 7 6 5 4 4 2 1 3 2 1 2 4 5 7 7 5 4 5 5 5 6 5 5 5 6 8 9 10 10 8 8 9 7 6 6 6 6 6 6 6 5 6 6 5 5 5 5 6 8 9 9 9 9 9
8 8 8 8 9 10 10 11 13 16 17 18 18 15 13 13 11 9 8 7 5 6 9 17 30 35 23 12 13 15 13 11 9 5 3 5 4 1 3 6 4 2 4 6 6 5 5 4 3 4 5 5 5 6 7 8 10 11 9 8 7 9 10 9 6 6 6 6 6 6 5 5 6 6 6 6 5 6 7 8 9 9 9 8 8
15 15 15 15 14 12 11 11 14 19 20 19 17 14 12 11 9 7 7 7 7 10 13 14 14 13 11 12 17 21 23 26 26 17 6 3 5 5 5 7 7 4 4 5 5 4 5 5 3 3 5 6 5 6 8 10 11 9 7 7 9 10 10 9 7 7 6 6 6 6 6 6 5 6 6 6 5 5 7 9 9 9 9 9 8
15 15 15 15 14 13 12 13 15 18 19 18 16 14 12 11 10 8 8 8 8 9 11 13 10 7 6 6 9 12 16 22 31 35 23 8 4 7 7 5 5 5 3 3 4 6 7 6 3 3 4 4 4 7 10 10 9 7 8 9 10 10 11 10 8 6 6 7 8 7 6 5 6 5 6 6 5 5 7 9 9 9 9 9 8
15 14 15 16 15 14 14 14 15 17 16 14 12 11 11 11 12 10 9 10 11 11 11 11 10 10 11 9 7 9 10 12 22 37 36 20 8 8 8 5 4 5 6 6 6 7 7 6 5 4 4 5 7 10 9 8 8 10 11 11 10 10 11 11 8 6 6 7 8 7 5 5 6 6 6 5 5 6 8 8 8 9 9 9 8
13 12 14 15 16 16 15 15 15 15 14 12 10 10 10 10 10 11 11 11 10 9 9 9 8 8 10 11 11 12 13 12 16 26 34 27 15 8 6 6 6 8 8 7 6 7 8 9 8 7 8 10 11 10 7 8 11 13 11 10 10 11 12 11 9 6 6 6 7 8 7 5 5 5 6 6 6 7 8 8 8 8 8 8 8
11 10 11 13 14 16 16 16 14 13 12 11 11 10 9 9 8 8 8 7 7 8 8 9 9 10 12 16 19 16 11 7 7 14 23 26 20 11 7 6 7 10 11 10 10 9 9 10 10 11 11 10 10 8 8 11 14 13 10 11 13 13 11 10 9 7 6 7 8 7 7 6 6 6 6 7 8 8 8 7 8 8 8 8 8
10 10 10 10 12 14 15 15 13 12 12 12 11 9 8 8 7 7 7 7 9 10 11 11 12 13 14 16 19 17 11 6 4 6 10 12 11 9 7 7 10 14 14 12 10 9 10 12 13 12 10 9 9 10 11 13 14 13 12 12 13 13 11 10 9 9 8 7 7 7 7 7 6 6 7 8 8 7 7 6 7 8 8 7 7
9 10 10 10 10 12 13 13 14 13 12 11 11 9 8 8 8 8 9 9 9 9 11 10 10 11 11 12 13 14 12 9 7 8 11 12 11 10 9 9 12 16 17 14 11 11 12 13 13 11 11 13 14 13 13 14 13 13 13 12 12 13 13 11 10 9 8 7 7 8 6 6 6 6 7 8 7 7 7 9 9 9 9 9 9
11 11 11 10 10 10 10 10 10 10 10 9 9 9 9 9 9 9 9 9 9 9 10 9 9 9 9 9 9 10 12 13 13 12 11 9 6 7 11 11 9 11 17 21 18 14 12 12 12 14 16 17 15 13 13 13 13 13 13 12 11 12 13 12 11 9 7 8 10 9 7 6 8 8 8 8 8 8 10 10 10 10 11 12 13
14 12 11 10 8 8 8 8 8 8 8 8 8 8 8 9 10 10 10 10 10 9 10 11 14 15 15 14 12 10 9 10 10 9 7 5 7 12 19 18 13 14 23 27 22 17 15 15 16 18 18 16 14 13 13 12 13 13 12 12 12 14 14 13 11 9 7 9 10 10 8 8 9 9 9 9 9 10 11 12 12 13 14 14 13
10 10 9 9 9 9 10 10 10 11 10 9 9 10 11 10 10 10 9 8 7 8 9 9 9 9 11 16 22 23 18 13 11 12 14 15 15 14 14 15 18 25 29 27 22 19 19 18 17 16 15 13 13 13 12 12 12 13 12 13 14 15 14 13 12 10 9 9 9 9 10 10 10 9 9 10 11 13 14 15 15 13 12 9 7
10 10 10 10 10 10 11 10 10 10 10 10 9 8 7 7 7 7 7 7 7 7 7 6 6 7 9 11 15 20 19 15 12 12 12 13 13 13 14 20 26 29 26 22 21 20 19 17 16 15 15 14 14 13 13 13 13 13 13 13 14 13 12 11 9 8 9 10 10 10 10 9 9 10 11 13 15 15 14 12 9 7 6 5 7
12 12 12 11 11 10 10 10 10 9 9 8 8 8 9 10 11 11 12 13 15 16 17 17 17 18 17 11 8 9 9 7 5 7 11 13 16 20 23 25 24 21 18 19 21 20 18 16 16 15 14 13 13 12 12 12 12 12 13 13 12 11 9 9 9 11 12 11 10 9 9 10 12 14 15 14 12 9 7 6 6 7 8 9 11
Height
5787 5788 5788 5789 5789 5789 5789 5789 5789 5789 5790 5790 5791 5792 5793 5793 5793 5794 5795 5795 5796 5797 5798 5798 5799 5800 5801 5801 5802 5802 5803 5803 5804 5804 5803 5803 5802 5801 5800 5799 5798 5797 5796 5794 5793 5791 5789 5787 5785 5783 5781 5778 5775 5772 5770 5767 5765 5762 5758 5755 5751 5747 5743 5739 5735 5731 5727 5722 5718 5714 5709 5705 5701 5696 5691 5686 5681 5676 5672 5667 5662 5656 5651 5646 5640
5786 5786 5787 5788 5788 5788 5788 5788 5789 5789 5789 5789 5790 5791 5792 5792 5792 5793 5793 5794 5795 5796 5796 5797 5798 5799 5799 5800 5801 5801 5801 5802 5802 5802 5801 5801 5800 5799 5798 5797 5795 5794 5793 5792 5790 5788 5786 5784 5782 5780 5778 5775 5772 5770 5768 5765 5762 5759 5756 5752 5748 5745 5741 5737 5733 5728 5724 5719 5715 5710 5706 5702 5698 5694 5689 5684 5678 5673 5668 5663 5658 5652 5646 5640 5635
5785 5785 5786 5787 5787 5787 5787 5788 5788 5788 5788 5789 5789 5790 5791 5791 5792 5792 5792 5793 5794 5794 5795 5796 5797 5798 5798 5799 5799 5799 5800 5800 5800 5799 5799 5798 5797 5796 5795 5794 5793 5792 5790 5789 5787 5785 5783 5781 5779 5777 5775 5772 5770 5768 5765 5763 5760 5757 5753 5750 5746 5742 5739 5735 5731 5726 5721 5717 5713 5708 5704 5700 5696 5691 5687 5681 5675 5670 5665 5660 5655 5649 5642 5636 5631
5783 5784 5785 5786 5786 5786 5786 5787 5787 5788 5788 5788 5789 5790 5790 5791 5791 5791 5792 5792 5793 5794 5795 5795 5796 5797 5797 5797 5798 5798 5798 5798 5797 5797 5796 5795 5794 5793 5792 5791 5790 5789 5788 5786 5784 5782 5780 5778 5776 5774 5772 5769 5767 5765 5763 5760 5757 5754 5751 5748 5744 5740 5737 5733 5729 5724 5719 5714 5710 5706 5702 5698 5693 5689 5685 5679 5674 5668 5662 5657 5652 5647 5640 5633 5629
5781 5783 5784 5785 5785 5785 5785 5786 5786 5787 5787 5787 5788 5789 5790 5790 5790 5790 5791 5791 5792 5793 5793 5794 5795 5795 5795 5796 5796 5796 5796 5795 5795 5794 5793 5793 5792 5791 5790 5789 5787 5786 5785 5783 5781 5779 5777 5775 5773 5771 5769 5767 5765 5762 5760 5757 5754 5752 5749 5745 5742 5738 5734 5730 5726 5721 5717 5712 5708 5704 5699 5695 5691 5687 5682 5678 5673 5668 5661 5654 5649 5644 5638 5631 5626
5780 5781 5782 5784 5784 5784 5784 5785 5785 5785 5786 5786 5787 5788 5789 5789 5789 5789 5790 5790 5791 5791 5792 5793 5793 5793 5794 5794 5794 5794 5793 5793 5792 5792 5791 5790 5789 5788 5787 5786 5785 5783 5782 5780 5778 5776 5774 5772 5770 5768 5766 5764 5762 5759 5757 5754 5752 5749 5746 5743 5740 5736 5732 5727 5723 5719 5715 5711 5706 5701 5697 5693 5689 5685 5680 5676 5671 5667 5662 5654 5647 5642 5637 5630 5624
5779 5780 5781 5782 5782 5783 5783 5784 5784 5785 5785 5786 5787 5787 5788 5788 5788 5788 5789 5789 5790 5790 5791 5791 5792 5792 5792 5792 5792 5791 5791 5790 5790 5789 5788 5787 5786 5785 5784 5783 5782 5780 5779 5777 5776 5774 5772 5770 5767 5766 5763 5761 5759 5757 5754 5752 5749 5747 5744 5741 5738 5734 5730 5725 5721 5717 5713 5709 5704 5700 5695 5691 5687 5683 5678 5674 5669 5664 5659 5654 5647 5640 5634 5629 5623
5777 5778 5779 5780 5780 5781 5782 5782 5783 5783 5784 5785 5785 5786 5786 5786 5787 5787 5787 5788 5788 5789 5789 5790 5790 5790 5790 5789 5789 5788 5788 5787 5787 5786 5785 5784 5783 5782 5781 5780 5779 5778 5776 5774 5773 5771 5769 5767 5765 5763 5760 5759 5756 5754 5752 5749 5747 5745 5742 5739 5736 5732 5729 5724 5720 5716 5711 5707 5703 5698 5694 5690 5686 5681 5677 5673 5668 5662 5656 5651 5645 5638 5632 5627 5622
5776 5777 5777 5778 5778 5779 5779 5780 5781 5781 5782 5783 5783 5784 5784 5785 5785 5785 5785 5786 5786 5787 5787 5787 5788 5787 5787 5787 5786 5786 5785 5785 5784 5783 5782 5781 5780 5779 5779 5777 5776 5775 5773 5772 5770 5768 5766 5764 5762 5760 5758 5756 5754 5751 5749 5747 5745 5742 5740 5737 5734 5730 5727 5723 5719 5715 5710 5706 5701 5697 5693 5689 5685 5680 5676 5671 5666 5660 5655 5649 5643 5637 5631 5626 5620
5774 5775 5775 5776 5776 5777 5777 5778 5778 5779 5780 5781 5781 5782 5782 5783 5783 5783 5784 5784 5784 5785 5785 5785 5785 5785 5785 5784 5784 5783 5783 5782 5781 5780 5779 5778 5777 5776 5776 5775 5773 5772 5770 5769 5767 5765 5763 5761 5759 5757 5755 5753 5751 5749 5747 5745 5743 5740 5737 5734 5731 5728 5725 5721 5717 5713 5709 5705 5700 5696 5692 5688 5684 5679 5674 5669 5664 5659 5654 5648 5642 5636 5631 5625 5620
5771 5772 5773 5774 5774 5775 5776 5776 5777 5777 5778 5779 5779 5780 5780 5780 5781 5781 5781 5782 5782 5782 5782 5782 5782 5782 5782 5781 5781 5780 5780 5779 5778 5777 5776 5775 5774 5773 5773 5771 5770 5769 5767 5766 5764 5762 5760 5758 5756 5754 5753 5751 5749 5746 5744 5742 5740 5737 5734 5732 5729 5726 5722 5719 5715 5711 5708 5704 5699 5695 5691 5687 5683 5678 5673 5668 5663 5658 5652 5647 5641 5636 5631 5625 5620
5769 5770 5771 5772 5772 5773 5774 5774 5775 5775 5776 5776 5777 5777 5778 5778 5778 5779 5779 5779 5780 5780 5780 5780 5780 5779 5779 5779 5778 5777 5777 5776 5775 5774 5773 5772 5771 5771 5770 5769 5767 5766 5764 5763 5761 5759 5757 5755 5754 5752 5750 5748 5746 5744 5742 5740 5738 5735 5732 5729 5727 5724 5720 5717 5713 5709 5706 5702 5698 5694 5690 5686 5682 5677 5673 5668 5662 5657 5652 5646 5641 5636 5631 5625 5620
5767 5768 5768 5769 5770 5771 5772 5772 5772 5773 5773 5774 5774 5775 5775 5776 5776 5776 5776 5777 5777 5777 5777 5777 5776 5776 5776 5775 5775 5774 5773 5773 5772 5771 5770 5769 5769 5768 5767 5766 5764 5763 5761 5760 5758 5757 5755 5753 5751 5749 5748 5746 5744 5742 5740 5738 5736 5733 5730 5727 5725 5721 5718 5715 5711 5708 5704 5700 5696 5693 5689 5685 5681 5676 5672 5667 5662 5657 5652 5647 5642 5636 5631 5626 5621
5764 5765 5766 5767 5768 5768 5769 5769 5770 5770 5771 5771 5772 5772 5773 5773 5773 5773 5774 5774 5774 5774 5774 5774 5773 5773 5772 5772 5771 5770 5770 5769 5769 5768 5767 5767 5766 5765 5764 5763 5761 5760 5758 5757 5755 5754 5752 5750 5748 5746 5745 5743 5741 5739 5738 5735 5733 5730 5727 5725 5722 5719 5716 5713 5709 5705 5702 5698 5694 5691 5687 5683 5679 5675 5671 5666 5661 5656 5652 5647 5642 5637 5632 5627 5621
5762 5763 5764 5764 5765 5765 5766 5766 5767 5767 5768 5769 5769 5770 5770 5770 5771 5771 5771 5771 5771 5771 5771 5770 5770 5769 5769 5768 5767 5766 5765 5765 5765 5764 5764 5763 5763 5762 5761 5760 5758 5757 5755 5754 5752 5751 5749 5747 5745 5743 5742 5740 5738 5736 5734 5732 5730 5727 5725 5722 5719 5716 5713 5710 5706 5703 5700 5696 5693 5689 5686 5682 5678 5674 5670 5665 5661 5656 5651 5647 5642 5637 5632 5627 5622
5759 5760 5760 5761 5761 5762 5762 5763 5764 5764 5765 5766 5766 5767 5767 5768 5768 5768 5768 5768 5768 5768 5767 5767 5766 5766 5765 5764 5763 5762 5761 5761 5760 5760 5760 5759 5759 5758 5757 5756 5755 5754 5752 5751 5749 5747 5746 5744 5742 5740 5739 5737 5735 5733 5731 5729 5727 5724 5722 5719 5716 5714 5710 5707 5704 5701 5698 5694 5691 5688 5684 5680 5676 5672 5668 5665 5660 5656 5651 5646 5642 5638 5633 5627 5622
5756 5756 5757 5757 5757 5758 5759 5760 5760 5761 5762 5762 5763 5764 5765 5765 5765 5765 5765 5765 5764 5764 5764 5763 5762 5762 5761 5760 5760 5759 5758 5757 5756 5755 5755 5756 5756 5755 5754 5753 5752 5751 5749 5748 5746 5744 5743 5741 5739 5738 5736 5734 5732 5730 5728 5726 5723 5721 5718 5716 5713 5711 5708 5704 5702 5699 5695 5692 5689 5686 5682 5678 5674 5671 5667 5663 5660 5656 5651 5647 5642 5638 5633 5628 5623
5752 5752 5752 5753 5754 5755 5755 5756 5756 5757 5758 5759 5760 5761 5761 5761 5761 5761 5761 5761 5760 5760 5760 5759 5759 5758 5757 5757 5756 5755 5754 5752 5750 5750 5751 5752 5752 5752 5751 5750 5749 5747 5746 5744 5743 5741 5739 5738 5736 5734 5733 5731 5729 5727 5725 5723 5720 5717 5715 5713 5710 5708 5705 5702 5699 5696 5693 5690 5687 5684 5680 5676 5673 5669 5665 5662 5658 5655 5651 5647 5643 5638 5633 5627 5622
5748 5748 5748 5749 5751 5751 5752 5752 5753 5753 5754 5755 5757 5757 5757 5758 5757 5757 5757 5757 5756 5756 5756 5756 5755 5754 5754 5753 5752 5751 5750 5748 5747 5747 5749 5749 5749 5748 5748 5747 5746 5744 5743 5741 5739 5738 5736 5734 5733 5731 5729 5728 5726 5724 5722 5719 5717 5715 5712 5710 5708 5705 5702 5699 5696 5694 5691 5688 5685 5682 5678 5675 5671 5667 5664 5660 5657 5653 5650 5646 5642 5638 5633 5628 5622
5745 5744 5744 5746 5747 5747 5748 5749 5749 5750 5751 5751 5752 5753 5753 5753 5753 5753 5753 5753 5752 5752 5752 5752 5751 5751 5750 5749 5748 5747 5746 5744 5744 5745 5746 5746 5746 5745 5744 5744 5742 5741 5739 5738 5736 5735 5733 5731 5730 5728 5726 5725 5723 5721 5719 5717 5714 5712 5710 5707 5705 5702 5700 5697 5694 5692 5689 5686 5683 5680 5676 5672 5669 5666 5662 5659 5656 5652 5648 5645 5641 5637 5633 5628 5623
5741 5741 5741 5742 5743 5743 5744 5745 5746 5746 5747 5748 5748 5748 5748 5749 5749 5749 5748 5748 5748 5748 5748 5748 5747 5747 5747 5746 5744 5743 5742 5742 5742 5742 5742 5742 5742 5742 5741 5740 5739 5738 5736 5735 5733 5731 5730 5728 5727 5725 5723 5722 5720 5718 5716 5714 5712 5710 5707 5705 5702 5700 5697 5694 5692 5689 5687 5684 5681 5677 5674 5670 5667 5664 5661 5658 5655 5651 5647 5644 5640 5636 5632 5628 5623
5738 5737 5738 5739 5740 5740 5741 5742 5742 5743 5743 5744 5744 5745 5744 5744 5745 5745 5745 5744 5745 5744 5744 5744 5743 5743 5743 5742 5741 5739 5739 5739 5739 5739 5739 5739 5739 5738 5738 5737 5736 5734 5733 5731 5730 5728 5726 5725 5723 5722 5720 5718 5717 5715 5713 5711 5709 5707 5704 5702 5700 5697 5695 5692 5690 5687 5685 5682 5679 5675 5672 5669 5666 5663 5660 5656 5653 5650 5646 5642 5639 5635 5631 5627 5623
5735 5734 5734 5735 5736 5737 5738 5739 5739 5739 5739 5740 5741 5741 5741 5740 5740 5741 5741 5741 5741 5741 5741 5740 5740 5739 5739 5738 5737 5736 5736 5736 5736 5736 5736 5736 5735 5735 5734 5733 5732 5731 5729 5728 5726 5725 5723 5722 5720 5718 5717 5715 5713 5712 5710 5708 5706 5704 5702 5699 5697 5695 5692 5690 5687 5685 5682 5680 5676 5673 5670 5667 5665 5662 5658 5655 5651 5648 5645 5641 5638 5634 5630 5626 5623
5731 5731 5731 5732 5733 5734 5735 5735 5736 5736 5736 5737 5737 5737 5737 5736 5736 5737 5737 5738 5738 5737 5737 5737 5736 5735 5735 5734 5734 5733 5733 5733 5733 5733 5732 5732 5732 5732 5731 5730 5729 5727 5726 5724 5723 5721 5720 5718 5716 5715 5713 5712 5710 5709 5707 5705 5703 5701 5699 5696 5694 5692 5690 5687 5685 5682 5680 5677 5675 5672 5669 5666 5663 5660 5657 5653 5650 5646 5643 5640 5636 5633 5629 5626 5622
5728 5728 5728 5729 5730 5730 5731 5732 5732 5732 5732 5733 5733 5733 5733 5733 5733 5733 5734 5734 5734 5733 5733 5733 5732 5731 5731 5730 5730 5730 5730 5730 5730 5729 5729 5729 5729 5728 5727 5726 5725 5724 5722 5721 5719 5718 5716 5715 5713 5712 5710 5709 5707 5705 5703 5702 5700 5698 5696 5694 5691 5689 5687 5684 5682 5680 5678 5676 5673 5670 5667 5664 5661 5658 5655 5652 5649 5645 5642 5638 5635 5632 5628 5625 5621
5725 5725 5726 5726 5727 5727 5728 5728 5728 5729 5729 5729 5730 5729 5729 5729 5729 5729 5730 5730 5729 5729 5729 5729 5728 5728 5727 5727 5726 5726 5727 5727 5726 5726 5726 5725 5725 5724 5723 5722 5721 5720 5719 5717 5716 5714 5713 5711 5710 5708 5707 5705 5704 5702 5700 5699 5697 5695 5693 5691 5689 5686 5684 5682 5680 5678 5676 5673 5671 5668 5665 5662 5659 5656 5653 5650 5647 5644 5641 5637 5634 5631 5628 5624 5620
5721 5722 5723 5723 5724 5724 5724 5725 5725 5725 5726 5726 5726 5726 5726 5725 5726 5726 5726 5726 5726 5725 5725 5725 5725 5724 5723 5723 5723 5723 5724 5723 5723 5722 5722 5722 5721 5720 5720 5719 5718 5716 5715 5714 5712 5711 5710 5708 5707 5705 5703 5702 5701 5699 5697 5696 5694 5692 5690 5688 5686 5684 5682 5680 5678 5676 5673 5671 5669 5666 5663 5660 5657 5654 5651 5648 5646 5642 5639 5636 5633 5630 5627 5624 5620
5717 5718 5719 5720 5720 5721 5721 5721 5721 5722 5722 5722 5722 5722 5722 5722 5722 5722 5722 5722 5722 5722 5722 5721 5721 5720 5720 5720 5720 5720 5720 5720 5719 5719 5718 5718 5717 5716 5716 5715 5714 5712 5711 5710 5709 5708 5706 5705 5703 5702 5700 5699 5697 5696 5694 5693 5691 5689 5687 5685 5683 5681 5679 5677 5675 5673 5671 5669 5666 5664 5661 5658 5655 5652 5649 5646 5644 5641 5638 5635 5632 5629 5626 5623 5620
5713 5714 5715 5716 5716 5716 5717 5717 5718 5718 5718 5718 5718 5719 5719 5719 5718 5718 5719 5719 5718 5718 5718 5718 5717 5717 5717 5717 5717 5717 5717 5716 5716 5715 5714 5714 5713 5712 5712 5711 5710 5709 5708 5706 5705 5704 5703 5701 5700 5698 5697 5695 5694 5693 5691 5689 5688 5686 5684 5682 5680 5678 5676 5674 5672 5670 5668 5666 5664 5661 5659 5656 5653 5650 5647 5644 5642 5639 5636 5633 5630 5627 5624 5621 5618
5709 5709 5710 5711 5712 5712 5712 5713 5714 5714 5714 5714 5714 5715 5715 5715 5714 5715 5715 5714 5714 5714 5714 5714 5714 5714 5714 5714 5713 5713 5713 5713 5712 5711 5710 5710 5709 5708 5708 5707 5706 5705 5704 5703 5701 5700 5699 5697 5696 5694 5693 5692 5690 5689 5687 5686 5684 5682 5680 5678 5676 5674 5672 5671 5669 5667 5665 5663 5660 5658 5656 5653 5650 5648 5645 5642 5639 5637 5634 5631 5628 5625 5622 5619 5617
5704 5705 5705 5706 5706 5707 5707 5708 5709 5710 5710 5710 5710 5710 5710 5710 5710 5710 5710 5710 5710 5710 5710 5710 5710 5710 5710 5710 5710 5709 5709 5708 5708 5707 5706 5706 5705 5704 5704 5703 5702 5701 5700 5699 5697 5696 5695 5693 5692 5691 5689 5688 5686 5684 5683 5682 5680 5678 5676 5674 5672 5670 5668 5667 5665 5663 5661 5659 5657 5655 5652 5650 5648 5645 5642 5639 5636 5634 5631 5628 5625 5622 5620 5617 5615
5699 5699 5700 5700 5701 5702 5703 5704 5704 5705 5706 5706 5706 5706 5706 5706 5706 5706 5706 5706 5706 5706 5706 5706 5706 5706 5706 5706 5705 5705 5704 5704 5703 5703 5702 5702 5701 5700 5699 5699 5698 5697 5695 5694 5693 5692 5690 5689 5688 5686 5685 5683 5682 5680 5679 5678 5676 5674 5672 5670 5668 5666 5664 5663 5661 5659 5657 5655 5653 5651 5649 5647 5644 5642 5639 5637 5634 5631 5629 5626 5623 5620 5617 5615 5612
5694 5694 5694 5695 5695 5697 5698 5698 5699 5700 5700 5701 5701 5701 5702 5702 5702 5702 5702 5702 5701 5701 5702 5702 5701 5701 5701 5701 5701 5700 5700 5699 5699 5699 5698 5697 5697 5696 5695 5694 5693 5692 5691 5690 5689 5687 5686 5685 5684 5683 5681 5680 5678 5676 5675 5673 5672 5670 5668 5666 5664 5662 5660 5658 5657 5655 5653 5651 5649 5647 5645 5643 5641 5639 5636 5633 5631 5628 5626 5623 5620 5617 5615 5612 5609
5689 5689 5689 5690 5690 5691 5692 5693 5693 5694 5695 5696 5696 5696 5696 5697 5697 5697 5697 5697 5697 5697 5697 5697 5697 5697 5696 5696 5696 5695 5695 5694 5694 5694 5693 5693 5692 5692 5691 5690 5689 5688 5687 5685 5684 5683 5682 5681 5680 5678 5677 5675 5674 5672 5670 5669 5667 5665 5664 5662 5660 5658 5656 5654 5653 5651 5649 5647 5645 5643 5642 5639 5637 5635 5632 5630 5627 5624 5622 5620 5617 5614 5612 5609 5606
5685 5685 5685 5685 5686 5686 5687 5688 5688 5689 5690 5691 5691 5691 5691 5692 5692 5692 5692 5692 5692 5692 5692 5692 5692 5692 5691 5691 5691 5690 5690 5689 5689 5689 5689 5689 5688 5687 5686 5685 5684 5683 5682 5681 5679 5678 5677 5676 5675 5673 5672 5670 5669 5667 5666 5664 5662 5660 5659 5657 5655 5653 5652 5650 5648 5647 5645 5642 5640 5639 5637 5635 5633 5631 5628 5626 5623 5621 5618 5616 5613 5611 5608 5606 5603
5681 5681 5681 5681 5682 5682 5682 5682 5683 5684 5684 5685 5685 5686 5686 5687 5687 5687 5686 5686 5686 5686 5686 5686 5686 5686 5686 5686 5685 5685 5685 5684 5684 5684 5684 5684 5683 5682 5681 5680 5679 5678 5677 5676 5674 5673 5672 5671 5669 5668 5667 5665 5664 5662 5661 5659 5657 5655 5653 5652 5650 5649 5647 5645 5644 5642 5640 5638 5636 5634 5633 5631 5628 5626 5624 5622 5619 5617 5615 5612 5610 5607 5604 5602 5599
5677 5676 5676 5677 5677 5677 5677 5678 5679 5679 5679 5679 5680 5681 5681 5681 5681 5681 5681 5681 5681 5680 5680 5680 5680 5679 5679 5680 5680 5680 5679 5679 5678 5679 5679 5679 5678 5677 5675 5674 5673 5672 5671 5670 5669 5668 5667 5665 5664 5662 5661 5660 5658 5657 5655 5653 5652 5650 5648 5647 5645 5644 5642 5641 5639 5637 5635 5633 5631 5630 5628 5626 5624 5622 5620 5618 5615 5613 5610 5608 5606 5603 5600 5598 5595
5672 5672 5672 5672 5673 5673 5673 5673 5674 5674 5674 5675 5675 5675 5675 5675 5676 5676 5675 5675 5675 5675 5674 5674 5673 5673 5673 5674 5674 5674 5674 5673 5673 5673 5673 5673 5672 5671 5669 5668 5667 5667 5666 5665 5663 5662 5661 5659 5658 5657 5655 5654 5653 5651 5649 5648 5646 5644 5643 5642 5640 5639 5638 5636 5634 5632 5630 5628 5626 5625 5623 5621 5619 5617 5615 5613 5611 5609 5606 5604 5601 5599 5596 5593 5591
5667 5667 5667 5668 5668 5668 5668 5668 5668 5668 5669 5670 5670 5670 5670 5670 5670 5670 5670 5669 5669 5669 5669 5669 5668 5667 5667 5668 5668 5668 5668 5667 5666 5666 5666 5666 5665 5664 5663 5662 5662 5661 5660 5658 5657 5656 5654 5653 5652 5650 5649 5648 5647 5645 5643 5642 5640 5639 5638 5637 5635 5634 5632 5630 5628 5627 5625 5623 5621 5620 5618 5616 5614 5612 5610 5608 5606 5604 5601 5599 5597 5594 5591 5589 5586
5663 5662 5662 5662 5663 5663 5663 5663 5663 5663 5664 5664 5664 5665 5665 5665 5665 5665 5664 5664 5664 5663 5663 5663 5663 5663 5663 5663 5662 5662 5662 5661 5659 5659 5658 5658 5657 5657 5656 5656 5656 5655 5653 5652 5651 5649 5647 5646 5645 5644 5643 5641 5640 5639 5637 5635 5634 5633 5633 5632 5630 5628 5626 5625 5623 5621 5620 5618 5616 5614 5613 5611 5609 5607 5605 5603 5601 5599 5596 5594 5592 5589 5587 5584 5581
5658 5657 5657 5657 5657 5658 5658 5658 5658 5658 5658 5658 5659 5659 5659 5659 5659 5659 5659 5659 5658 5658 5658 5658 5658 5658 5658 5658 5657 5656 5655 5654 5653 5652 5651 5651 5650 5650 5650 5649 5649 5648 5646 5645 5644 5642 5640 5639 5638 5637 5636 5635 5633 5632 5630 5629 5629 5628 5627 5626 5624 5623 5621 5619 5618 5616 5614 5612 5610 5609 5607 5606 5604 5602 5600 5598 5596 5593 5591 5589 5586 5583 5581 5578 5575
5653 5652 5653 5653 5653 5653 5653 5653 5653 5653 5654 5654 5654 5654 5654 5654 5654 5654 5654 5653 5653 5653 5653 5652 5652 5652 5652 5651 5651 5650 5649 5648 5647 5647 5646 5645 5644 5643 5643 5643 5642 5641 5640 5639 5637 5636 5634 5633 5632 5631 5629 5628 5626 5625 5624 5624 5623 5622 5621 5620 5618 5617 5615 5614 5612 5611 5609 5607 5605 5603 5602 5600 5598 5596 5594 5592 5590 5588 5585 5583 5580 5577 5575 5572 5569
5648 5648 5648 5648 5648 5648 5648 5649 5649 5649 5649 5649 5649 5649 5649 5649 5649 5649 5649 5648 5648 5647 5647 5647 5647 5646 5646 5645 5644 5644 5643 5642 5642 5641 5640 5640 5639 5638 5637 5637 5636 5635 5634 5633 5631 5630 5629 5627 5626 5624 5622 5621 5620 5620 5619 5619 5618 5616 5615 5614 5612 5611 5609 5608 5606 5605 5603 5601 5599 5597 5596 5594 5592 5590 5588 5586 5584 5581 5579 5577 5574 5571 5569 5566 5563
5644 5643 5643 5644 5644 5644 5644 5644 5644 5644 5644 5644 5644 5645 5645 5645 5644 5644 5644 5643 5643 5642 5642 5642 5641 5641 5640 5639 5639 5638 5637 5637 5636 5635 5635 5634 5634 5633 5632 5631 5630 5629 5627 5626 5625 5624 5622 5620 5619 5617 5616 5616 5616 5615 5615 5613 5612 5610 5609 5608 5606 5605 5604 5602 5600 5599 5597 5595 5594 5592 5590 5588 5586 5583 5581 5579 5577 5575 5572 5570 5567 5565 5563 5560 5557
5639 5639 5639 5639 5639 5639 5639 5639 5639 5639 5639 5640 5640 5640 5640 5640 5639 5639 5638 5638 5638 5637 5637 5636 5636 5635 5634 5634 5633 5632 5631 5631 5631 5630 5629 5629 5628 5627 5626 5625 5624 5622 5620 5619 5618 5617 5615 5614 5612 5612 5612 5611 5611 5610 5609 5607 5606 5604 5603 5602 5601 5599 5598 5596 5594 5593 5591 5590 5588 5586 5584 5582 5579 5577 5575 5572 5570 5567 5565 5563 5560 5558 5556 5553 5550
5635 5635 5635 5635 5635 5635 5635 5635 5635 5635 5635 5635 5635 5635 5635 5635 5634 5634 5633 5633 5632 5632 5631 5631 5630 5630 5629 5628 5627 5627 5626 5625 5625 5624 5623 5623 5622 5621 5620 5619 5617 5615 5613 5612 5611 5610 5608 5607 5607 5607 5607 5606 5605 5604 5603 5601 5600 5599 5597 5596 5595 5593 5592 5590 5588 5587 5585 5584 5582 5580 5578 5576 5573 5571 5568 5566 5563 5561 5558 5556 5553 5551 5548 5546 5544
5630 5630 5630 5631 5631 5631 5631 5631 5631 5631 5631 5631 5630 5630 5630 5629 5629 5629 5628 5628 5627 5627 5626 5625 5625 5624 5623 5622 5621 5621 5620 5619 5619 5618 5617 5617 5616 5615 5614 5612 5611 5609 5607 5605 5604 5604 5603 5603 5603 5602 5601 5600 5599 5598 5596 5595 5594 5593 5592 5590 5589 5587 5586 5584 5582 5581 5579 5578 5576 5573 5571 5569 5566 5564 5561 5559 5556 5554 5551 5548 5546 5543 5541 5539 5536
5625 5626 5626 5626 5626 5626 5626 5626 5626 5626 5626 5626 5625 5625 5625 5624 5624 5623 5623 5622 5622 5621 5620 5619 5619 5618 5617 5616 5615 5615 5614 5613 5613 5612 5611 5610 5609 5608 5607 5606 5604 5603 5601 5600 5600 5599 5599 5598 5597 5596 5595 5594 5593 5592 5591 5590 5589 5588 5586 5585 5583 5582 5580 5578 5576 5575 5573 5571 5569 5567 5564 5562 5559 5556 5554 5551 5549 5546 5543 5541 5538 5536 5533 5531 5528
5621 5621 5622 5622 5622 5622 5622 5621 5621 5621 5621 5620 5620 5620 5619 5619 5618 5618 5617 5616 5616 5615 5614 5613 5612 5612 5611 5610 5609 5609 5608 5607 5606 5606 5605 5604 5603 5602 5601 5600 5599 5598 5597 5596 5595 5594 5593 5592 5591 5591 5590 5589 5587 5586 5585 5584 5583 5582 5581 5579 5578 5576 5574 5572 5570 5569 5566 5564 5562 5559 5557 5554 5552 5549 5546 5543 5541 5538 5536 5533 5531 5528 5525 5523 5520
5617 5617 5617 5617 5617 5617 5617 5617 5616 5616 5616 5615 5615 5614 5614 5613 5612 5612 5611 5610 5609 5609 5608 5607 5606 5606 5605 5605 5604 5603 5602 5601 5600 5599 5599 5598 5597 5596 5595 5594 5593 5593 5592 5591 5590 5589 5588 5587 5586 5585 5584 5583 5582 5581 5580 5579 5578 5576 5575 5574 5572 5570 5568 5566 5564 5562 5559 5557 5554 5552 5549 5546 5544 5541 5538 5535 5533 5530 5528 5525 5522 5520 5517 5514 5512
5613 5613 5613 5612 5612 5612 5612 5611 5611 5611 5610 5610 5609 5609 5608 5607 5607 5606 5605 5604 5603 5602 5602 5601 5600 5600 5599 5598 5598 5597 5596 5595 5594 5593 5592 5591 5590 5589 5589 5588 5588 5587 5586 5586 5585 5584 5583 5582 5581 5580 5579 5578 5577 5576 5574 5573 5572 5571 5569 5567 5566 5564 5562 5560 5557 5555 5552 5549 5547 5544 5541 5538 5535 5533 5530 5528 5525 5522 5519 5516 5514 5511 5508 5505 5503